Location: Baumgarten
(49.0970°N, 12.7493°E)
Time: 19:10:44
(UTC+00:00)

Cosmos 1315 Rocket - Pass Details

Date: 05 July 2020
Orbit: 530 x 568 km, 81.2° (Epoch: 11 August)

Event Time Altitude Azimuth Distance (km) Brightness Sun altitude
Rises 20:45:18 0° 349° (N) 2,753 7.8 -11.0°
Reaches altitude 10° 20:47:29 10° 351° (N) 1,858 6.6 -11.2°
Maximum altitude 20:51:35 77° 77° (ENE) 584 2.9 -11.5°
Enters shadow 20:54:43 17° 163° (SSE) 1,470 4.4 -11.8°
